Tracking 29892 objects as of 21-Nov-2024
HD Live streaming from Space Station
objects crossing your sky now

USA 385

Track USA 385 now!
10-day predictions


NORAD ID: 60168
Int'l Code: 2024-121L
Perigee: 582.9 km
Apogee: 585.5 km
Inclination: 70.0 °
Period: 96.2 minutes
Semi major axis: 6955 km
RCS: Unknown
Launch date: June 29, 2024
Source: United States (US)
Launch site: AIR FORCE WESTERN TEST RANGE (AFWTR)
Your satellite tracking list
Your tracking list is empty




NASA's NSSDC Master Catalog

Two Line Element Set (TLE):
1 60168U 24121L   24243.10594279 0.00000000  00000-0  00000-0 0    06
2 60168  69.9944 236.5067 0001908 273.8976  86.1047 14.96716282    05
Source of the keplerian elements: McCants